Weather History for Tacoma, WA

Change the Weather History Date:

Saturday, October 1, 2011

  Actual Average Record
Temperature  
Mean Temperature 53 °F -  
Max Temperature 61 °F 64 °F 87 °F (1987)
Min Temperature 46 °F 43 °F 32 °F (2002)
Degree Days  
Heating Degree Days 12    
Growing Degree Days 3 (Base 50)    
Moisture  
Dew Point 50 °F    
Average Humidity 89    
Maximum Humidity 100    
Minimum Humidity 58    
Precipitation  
Precipitation 0.01 in - - ()
Sea Level Pressure  
Sea Level Pressure 29.94 in    
Wind  
Wind Speed 3 mph (SW)    
Max Wind Speed 9 mph    
Max Gust Speed -    
Visibility 9 miles    
Events      
Averages and records for this station are not official NWS values.
T = Trace of Precipitation, MM = Missing Value Source: NWS Daily Summary

Daily Weather History Graph

Daily Weather History Graph

Search for Another Location

Airport:

Trip Planner

Search our weather history database for the weather conditions in past years. The results will help you decide how hot, cold, wet, or windy it might be!

Date:

Astronomy

Oct. 01, 2011 Rise Set
Actual Time 7:08 AM PDT 6:49 PM PDT
Civil Twilight 6:38 AM PDT 7:20 PM PDT
Nautical Twilight 6:02 AM PDT 7:55 PM PDT
Astronomical Twilight 5:26 AM PDT 8:31 PM PDT
Moon 12:43 PM PDT (10/1) 9:29 PM PDT (10/1)
Length of Visible Light 12h 42m
Length of Day
11h 41m
Waxing Crescent, 25% of the Moon is Illuminated
Oct 1
Waxing Crescent
Oct 3
First Quarter
Oct 11
Full
Oct 19
Last Quarter
Oct 26
New

Hourly Weather History & Observations

Time (PDT) Temp. Dew Point Humidity Pressure Visibility Wind Dir Wind Speed Gust Speed Precip Events Conditions
12:58 AM 48.2 °F 45.9 °F 92% 29.91 in 10.0 mi North - - N/A   Clear
1:58 AM 46.6 °F 45.5 °F 96% 29.91 in 10.0 mi NNE 2.3 mph - N/A   Mostly Cloudy
2:58 AM 48.0 °F 46.8 °F 95% 29.91 in 10.0 mi SSE 2.3 mph - N/A   Overcast
3:43 AM 48.2 °F 46.4 °F 93% 29.87 in 10.0 mi North - - N/A   Overcast
3:53 AM 48.2 °F 46.4 °F 93% 29.86 in 10.0 mi Calm Calm - N/A   Overcast
3:58 AM 48.0 °F 46.4 °F 94% 29.91 in 10.0 mi SSW 1.2 mph - N/A   Overcast
4:58 AM 48.2 °F 48.2 °F 100% 29.93 in 10.0 mi South 2.3 mph - N/A   Overcast
5:59 AM 50.2 °F 48.2 °F 93% 29.93 in 10.0 mi Calm Calm - N/A   Overcast
6:58 AM 50.7 °F 48.6 °F 92% 29.93 in 10.0 mi North - - N/A   Overcast
7:58 AM 51.3 °F 49.3 °F 93% 29.94 in 10.0 mi Calm Calm - N/A   Overcast
8:39 AM 51.8 °F 50.0 °F 94% 29.90 in 5.0 mi South 2.3 mph - N/A   Light Drizzle
8:43 AM 51.8 °F 50.0 °F 94% 29.90 in 5.0 mi South 2.3 mph - N/A   Overcast
8:58 AM 51.3 °F 50.0 °F 95% 29.94 in 5.0 mi WNW 1.2 mph - 0.00 in   Overcast
9:03 AM 51.8 °F 50.0 °F 94% 29.90 in 8.0 mi West 3.5 mph - N/A   Overcast
9:18 AM 51.8 °F 50.0 °F 94% 29.90 in 3.0 mi South 2.3 mph - N/A   Overcast
9:20 AM 51.8 °F 50.0 °F 94% 29.90 in 3.0 mi North - - N/A   Light Drizzle
9:37 AM 51.8 °F 50.0 °F 94% 29.90 in 7.0 mi Calm Calm - N/A   Overcast
9:52 AM 51.8 °F 50.0 °F 94% 29.91 in 10.0 mi West 2.3 mph - N/A   Overcast
9:53 AM 51.8 °F 51.8 °F 100% 29.91 in 10.0 mi North - - N/A   Overcast
9:58 AM 51.8 °F 51.1 °F 97% 29.96 in 10.0 mi SSW 1.2 mph - 0.01 in   Overcast
10:23 AM 51.8 °F 51.8 °F 100% 29.91 in 10.0 mi WSW 2.3 mph - N/A   Overcast
10:58 AM 52.7 °F 50.9 °F 94% 29.95 in 10.0 mi WSW 2.3 mph - N/A   Overcast
11:13 AM 53.6 °F 51.8 °F 94% 29.92 in 10.0 mi WSW 3.5 mph - N/A   Overcast
11:33 AM 53.6 °F 51.8 °F 94% 29.92 in 10.0 mi SW 4.6 mph - N/A   Overcast
11:43 AM 53.6 °F 51.8 °F 94% 29.92 in 10.0 mi SSW 4.6 mph - N/A   Overcast
11:58 AM 54.0 °F 51.6 °F 92% 29.97 in 10.0 mi South 3.5 mph - N/A   Overcast
12:08 PM 53.6 °F 51.8 °F 94% 29.93 in 10.0 mi SW 4.6 mph - N/A   Overcast
12:13 PM 53.6 °F 51.8 °F 94% 29.93 in 10.0 mi WSW 4.6 mph - N/A   Overcast
12:18 PM 53.6 °F 51.8 °F 94% 29.93 in 10.0 mi WSW 5.8 mph - N/A   Overcast
12:28 PM 53.6 °F 51.8 °F 94% 29.93 in 10.0 mi WSW 5.8 mph - N/A   Overcast
12:33 PM 53.6 °F 51.8 °F 94% 29.94 in 10.0 mi WSW 6.9 mph - N/A   Overcast
12:43 PM 53.6 °F 51.8 °F 94% 29.94 in 10.0 mi WSW 4.6 mph - N/A   Overcast
12:48 PM 55.4 °F 51.8 °F 88% 29.94 in 10.0 mi WSW 4.6 mph - N/A   Overcast
12:58 PM 54.7 °F 51.8 °F 90% 29.98 in 10.0 mi WSW 6.9 mph - N/A   Overcast
1:18 PM 53.6 °F 51.8 °F 94% 29.95 in 8.0 mi WSW 6.9 mph - N/A   Overcast
1:33 PM 55.4 °F 53.6 °F 94% 29.95 in 10.0 mi WSW 6.9 mph - N/A   Overcast
1:38 PM 55.4 °F 53.6 °F 94% 29.95 in 10.0 mi SW 6.9 mph - N/A   Overcast
1:48 PM 55.4 °F 53.6 °F 94% 29.95 in 10.0 mi SW 9.2 mph - N/A   Overcast
1:58 PM 56.5 °F 52.9 °F 88% 29.99 in 10.0 mi SSW 9.2 mph - N/A   Overcast
2:13 PM 57.2 °F 51.8 °F 82% 29.95 in 10.0 mi SW 6.9 mph - N/A   Overcast
2:58 PM 60.6 °F 50.9 °F 70% 29.99 in 10.0 mi SW 5.8 mph - N/A   Partly Cloudy
3:58 PM 60.4 °F 49.3 °F 67% 30.00 in 10.0 mi WNW 6.9 mph - N/A   Overcast
4:58 PM 59.5 °F 48.7 °F 67% 30.01 in 10.0 mi Variable 5.8 mph - N/A   Overcast
5:58 PM 59.2 °F 44.2 °F 58% 30.01 in 10.0 mi SW 2.3 mph - N/A   Overcast
6:58 PM 57.0 °F 46.9 °F 69% 30.01 in 10.0 mi Calm Calm - N/A   Overcast
7:58 PM 55.9 °F 47.3 °F 73% 30.01 in 10.0 mi SSE 2.3 mph - N/A   Overcast
8:58 PM 55.2 °F 46.9 °F 74% 30.02 in 10.0 mi South 2.3 mph - N/A   Overcast
9:58 PM 54.7 °F 46.2 °F 73% 30.01 in 10.0 mi North - - N/A   Partly Cloudy
10:58 PM 52.3 °F 46.4 °F 80% 30.01 in 10.0 mi North - - N/A   Scattered Clouds
11:58 PM 49.8 °F 46.2 °F 87% 30.03 in 10.0 mi South 3.5 mph - N/A   Partly Cloudy